• Join FlightAware (Why Join?)
  • Login
  • US Flag 
01:55PM EDT


 

Airport Tracker/Info


-or-


 

Live Flight TrackerFlight Track Log ✈ DAL268 ✈ 13-Jul-2013 ✈ KSFO - KJFK

Flight Track Log - Related Links

Times and Time Zones

All times are in EDT time to prevent confusion due to time zone crossing. See the DAL268 flight status page for this flight to view local times or setup timezone preferences in your user account.

Time Position Orientation Groundspeed Altitude Reporting Facility
EDT Latitude Longitude Course Direction KTS MPH feet Rate Location/Type
02:51PM 37.6070 -122.3810 North 12 14  Level FlightAware
02:54PM 37.6239 -122.3690 29° Northeast 163 188 200 240 Climbing FlightAware ADS-B
02:54PM 37.6336 -122.3630 26° Northeast 166 191 800 2,160 Climbing FlightAware ADS-B
02:54PM 37.6397 -122.3560 42° Northeast 177 204 1,100 1,800 Climbing FlightAware ADS-B
02:54PM 37.6454 -122.3490 44° Northeast 183 211 1,400 1,680 Climbing FlightAware ADS-B
02:54PM 37.6479 -122.3450 52° Northeast 192 221 1,500 1,380 Climbing FlightAware ADS-B
02:55PM 37.6659 -122.3220 45° Northeast 223 257 2,100 1,560 Climbing FlightAware ADS-B
02:55PM 37.6782 -122.3060 46° Northeast 243 280 2,600 1,980 Climbing FlightAware ADS-B
02:55PM 37.6848 -122.2970 47° Northeast 255 293 2,900 1,800 Climbing FlightAware ADS-B
02:55PM 37.6996 -122.2780 45° Northeast 270 311 3,400 2,400 Climbing FlightAware ADS-B
02:56PM 37.7172 -122.2560 45° Northeast 276 318 4,400 2,940 Climbing FlightAware ADS-B
02:56PM 37.7461 -122.2200 45° Northeast 280 322 5,900 2,760 Climbing FlightAware ADS-B
02:57PM 37.7613 -122.2040 40° Northeast 280 322 6,600 2,760 Climbing FlightAware ADS-B
02:57PM 37.7736 -122.1920 38° Northeast 288 331 7,100 2,880 Climbing FlightAware ADS-B
02:57PM 37.7904 -122.1760 37° Northeast 290 334 7,900 2,700 Climbing FlightAware ADS-B
02:57PM 37.8067 -122.1600 38° Northeast 293 337 8,500 2,460 Climbing FlightAware ADS-B
02:57PM 37.8239 -122.1440 36° Northeast 296 341 9,200 2,760 Climbing FlightAware ADS-B
02:58PM 37.8410 -122.1280 36° Northeast 297 342 10,000 1,680 Climbing FlightAware ADS-B
02:58PM 37.8765 -122.0950 36° Northeast 332 382 10,500 1,500 Climbing FlightAware ADS-B
02:59PM 37.9173 -122.0560 37° Northeast 348 400 11,600 1,620 Climbing FlightAware ADS-B
02:59PM 37.9582 -122.0170 37° Northeast 376 433 12,200 1,500 Climbing FlightAware ADS-B
03:00PM 38.0032 -121.9740 37° Northeast 391 450 13,200 1,920 Climbing FlightAware ADS-B
03:01PM 38.0850 -121.8960 37° Northeast 408 470 15,100 1,980 Climbing FlightAware
03:01PM 38.1470 -121.8370 37° Northeast 418 481 16,400 1,800 Climbing FlightAware
03:02PM 38.2140 -121.7720 37° Northeast 431 496 17,700 1,560 Climbing FlightAware
03:03PM 38.2840 -121.7050 37° Northeast 448 516 18,700 1,560 Climbing FlightAware
03:03PM 38.3440 -121.6480 37° Northeast 454 522 19,800 1,680 Climbing FlightAware
03:04PM 38.4140 -121.5790 38° Northeast 464 534 20,900 1,620 Climbing FlightAware
03:05PM 38.4810 -121.4890 46° Northeast 471 542 22,100 1,500 Climbing FlightAware
03:05PM 38.5270 -121.4110 53° Northeast 479 551 22,900 1,380 Climbing FlightAware
03:06PM 38.5910 -121.2990 54° Northeast 487 560 24,100 1,380 Climbing FlightAware
03:07PM 38.6450 -121.2060 53° Northeast 492 566 25,000 1,200 Climbing FlightAware
03:08PM 38.6960 -121.1180 53° Northeast 502 578 25,700 1,020 Climbing FlightAware
03:08PM 38.7600 -121.0070 53° Northeast 511 588 26,500 1,200 Climbing FlightAware
03:09PM 38.8100 -120.9210 53° Northeast 509 586 27,400 1,560 Climbing FlightAware
03:10PM 38.8650 -120.8240 54° Northeast 506 582 28,500 1,560 Climbing FlightAware
03:10PM 38.9280 -120.7160 53° Northeast 504 580 29,600 1,380 Climbing FlightAware
03:11PM 38.9830 -120.6220 53° Northeast 506 582 30,500 1,320 Climbing FlightAware
03:12PM 39.0460 -120.5110 54° Northeast 504 580 31,500 1,140 Climbing FlightAware
03:12PM 39.1020 -120.4140 53° Northeast 507 583 32,200 1,080 Climbing FlightAware
03:13PM 39.1660 -120.3020 54° Northeast 510 587 33,100 900 Climbing FlightAware
03:14PM 39.2210 -120.2050 54° Northeast 516 594 33,500 840 Climbing FlightAware
03:15PM 39.2810 -120.1000 54° Northeast 517 595 34,300 1,020 Climbing FlightAware
03:15PM 39.3430 -119.9910 54° Northeast 516 594 35,000 480 Climbing FlightAware
03:16PM 39.4020 -119.8860 54° Northeast 519 597 35,000  Level FlightAware
03:17PM 39.4580 -119.7860 54° Northeast 519 597 35,000  Level FlightAware
03:17PM 39.5160 -119.6840 54° Northeast 522 601 35,000  Level FlightAware
03:18PM 39.5780 -119.5720 54° Northeast 525 604 35,000  Level FlightAware
03:19PM 39.6400 -119.4600 54° Northeast 525 604 35,000  Level FlightAware
03:19PM 39.6970 -119.3580 54° Northeast 526 605 35,000  Level FlightAware
03:20PM 39.7560 -119.2520 54° Northeast 530 610 35,000  Level FlightAware
03:21PM 39.8200 -119.1360 54° Northeast 531 611 35,000  Level FlightAware
03:22PM 39.8710 -119.0430 54° Northeast 531 611 35,000  Level FlightAware
03:22PM 39.9300 -118.9370 54° Northeast 532 612 35,000  Level FlightAware
03:23PM 39.9860 -118.8340 55° Northeast 532 612 35,000  Level FlightAware
03:24PM 40.0440 -118.7270 55° Northeast 533 613 35,000  Level FlightAware
03:24PM 40.1000 -118.6220 55° Northeast 530 610 35,000  Level FlightAware
03:25PM 40.1440 -118.5090 63° Northeast 525 604 35,000  Level FlightAware
03:26PM 40.1780 -118.3900 69° East 522 601 35,000  Level FlightAware
03:26PM 40.2140 -118.2600 70° East 522 601 35,000  Level FlightAware
03:27PM 40.2500 -118.1340 69° East 521 600 35,000  Level FlightAware
03:28PM 40.2770 -118.0410 69° East 521 600 35,000  Level FlightAware
03:28PM 40.3110 -117.9260 69° East 521 600 35,000  Level FlightAware
03:29PM 40.3380 -117.8330 69° East 521 600 35,000  Level FlightAware
03:30PM 40.3720 -117.7170 69° East 521 600 35,000  Level FlightAware
03:30PM 40.3980 -117.6270 69° East 521 600 35,000  Level FlightAware
03:31PM 40.4330 -117.5060 69° East 521 600 35,000  Level FlightAware
03:32PM 40.4600 -117.4160 68° East 521 600 35,000  Level FlightAware
03:33PM 40.4950 -117.2950 69° East 521 600 35,000  Level FlightAware
03:33PM 40.5220 -117.2020 69° East 521 600 35,000  Level FlightAware
03:34PM 40.5570 -117.0810 69° East 521 600 35,000  Level FlightAware
03:35PM 40.5840 -116.9900 69° East 521 600 35,000  Level FlightAware
03:35PM 40.6190 -116.8700 69° East 521 600 35,000  Level FlightAware
03:36PM 40.6460 -116.7790 69° East 521 600 35,000  Level FlightAware
03:37PM 40.6810 -116.6580 69° East 521 600 35,000  Level FlightAware
03:40PM 41.0066 -115.8300 62° Northeast 528 608 35,000  Level FlightAware ADS-B
03:41PM 41.0412 -115.7370 64° Northeast 528 608 35,000  Level FlightAware ADS-B
03:41PM 41.0735 -115.6510 63° Northeast 528 608 35,000  Level FlightAware ADS-B
03:42PM 41.1342 -115.4870 64° Northeast 528 608 35,000  Level FlightAware ADS-B
03:43PM 41.1669 -115.3990 64° Northeast 526 605 35,000  Level FlightAware ADS-B
03:43PM 41.2206 -115.2530 64° Northeast 526 605 35,000  Level FlightAware ADS-B
03:44PM 41.2532 -115.1640 64° Northeast 526 605 35,000  Level FlightAware ADS-B
03:44PM 41.2852 -115.0760 64° Northeast 526 605 35,000  Level FlightAware ADS-B
03:45PM 41.3169 -114.9890 64° Northeast 526 605 35,000  Level FlightAware ADS-B
03:45PM 41.3490 -114.9010 64° Northeast 525 604 35,000  Level FlightAware ADS-B
03:46PM 41.3852 -114.8010 64° Northeast 525 604 35,000  Level FlightAware ADS-B
03:47PM 41.4383 -114.6540 64° Northeast 526 605 35,000  Level FlightAware ADS-B
03:47PM 41.4725 -114.5580 65° Northeast 527 606 35,000  Level FlightAware ADS-B
03:48PM 41.5048 -114.4680 64° Northeast 527 606 35,000  Level FlightAware ADS-B
03:48PM 41.5379 -114.3750 65° Northeast 528 608 35,000  Level FlightAware ADS-B
03:49PM 41.5696 -114.2860 65° Northeast 529 609 35,000  Level FlightAware ADS-B
03:49PM 41.6013 -114.1970 65° Northeast 530 610 35,000  Level FlightAware ADS-B
03:50PM 41.6331 -114.1070 65° Northeast 531 611 35,000  Level FlightAware ADS-B
03:50PM 41.6648 -114.0170 65° Northeast 529 609 35,000  Level FlightAware ADS-B
03:51PM 41.6972 -113.9240 65° Northeast 532 612 35,000  Level FlightAware ADS-B
03:51PM 41.7289 -113.8340 65° Northeast 530 610 35,000  Level FlightAware ADS-B
03:52PM 41.7573 -113.7500 66° East 531 611 35,000  Level FlightAware ADS-B
03:52PM 41.7692 -113.6970 73° East 522 601 35,000  Level FlightAware ADS-B
03:53PM 41.7816 -113.6090 79° East 520 598 35,000  Level FlightAware ADS-B
03:53PM 41.7938 -113.5130 80° East 521 600 35,000  Level FlightAware ADS-B
03:54PM 41.8076 -113.4010 81° East 520 598 35,000  Level FlightAware ADS-B
03:54PM 41.8249 -113.2860 79° East 526 605 35,000  Level FlightAware ADS-B
03:55PM 41.8580 -113.1660 70° East 533 613 35,000  Level FlightAware
03:56PM 41.8900 -113.0750 65° Northeast 533 613 35,000  Level FlightAware ADS-B
03:56PM 41.9390 -112.9320 65° Northeast 534 615 35,000  Level FlightAware
03:57PM 41.9599 -112.8710 65° Northeast 535 616 35,000  Level FlightAware ADS-B
03:57PM 42.0011 -112.7470 66° East 535 616 35,000  Level FlightAware ADS-B
03:58PM 42.0362 -112.6400 66° East 536 617 35,000  Level FlightAware ADS-B
03:59PM 42.0809 -112.5020 66° East 537 618 35,000  Level FlightAware ADS-B
03:59PM 42.1225 -112.3740 66° East 536 617 35,000  Level FlightAware ADS-B
04:00PM 42.1547 -112.2780 66° East 536 617 35,000  Level FlightAware ADS-B
04:01PM 42.1935 -112.1640 65° Northeast 536 617 35,000  Level FlightAware ADS-B
04:01PM 42.2260 -112.0680 65° Northeast 536 617 35,000  Level FlightAware ADS-B
04:02PM 42.2574 -111.9740 66° East 534 615 35,000  Level FlightAware ADS-B
04:02PM 42.2883 -111.8810 66° East 533 613 35,000  Level FlightAware ADS-B
04:03PM 42.3186 -111.7900 66° East 531 611 35,000  Level FlightAware ADS-B
04:03PM 42.3500 -111.6960 66° East 531 611 35,000  Level FlightAware ADS-B
04:04PM 42.3824 -111.5980 66° East 529 609 35,000  Level FlightAware ADS-B
04:04PM 42.4164 -111.4940 66° East 528 608 35,000  Level FlightAware ADS-B
04:05PM 42.4520 -111.3850 66° East 526 605 35,000  Level FlightAware
04:05PM 42.4830 -111.2910 66° East 526 605 35,000  Level FlightAware
04:06PM 42.5120 -111.2030 66° East 526 605 35,000  Level FlightAware
04:07PM 42.5530 -111.0780 66° East 526 605 35,000  Level FlightAware
04:08PM 42.5850 -110.9800 66° East 526 605 35,000  Level FlightAware
04:08PM 42.6130 -110.8930 66° East 526 605 35,000  Level FlightAware
04:09PM 42.6540 -110.7700 66° East 526 605 35,000  Level FlightAware
04:09PM 42.6840 -110.6770 66° East 526 605 35,000  Level FlightAware
04:10PM 42.7250 -110.5540 66° East 526 605 35,000  Level FlightAware
04:11PM 42.7830 -110.3730 66° East 526 605 35,000  Level FlightAware
04:12PM 42.8140 -110.2810 65° Northeast 526 605 35,000  Level FlightAware
04:13PM 42.8450 -110.1850 66° East 526 605 35,000  Level FlightAware
04:14PM 42.9070 -109.9950 66° East 526 605 35,000  Level FlightAware
04:15PM 43.0156 -109.6067 66° East 539 620 35,000  Level Salt Lake Center
04:16PM 43.0842 -109.3814 67° East 538 619 35,000  Level Salt Lake Center
04:17PM 43.1414 -109.1922 67° East 540 621 35,000  Level Salt Lake Center
04:18PM 43.1983 -109.0019 68° East 542 624 35,000  Level Salt Lake Center
04:19PM 43.2547 -108.8133 68° East 538 619 35,000  Level Salt Lake Center
04:20PM 43.3108 -108.6236 68° East 539 620 35,000  Level Salt Lake Center
04:21PM 43.3653 -108.4356 68° East 535 616 35,000  Level Salt Lake Center
04:22PM 43.4203 -108.2469 68° East 535 616 35,000  Level Salt Lake Center
04:23PM 43.4858 -108.0211 68° East 532 612 35,000  Level Salt Lake Center
04:24PM 43.5394 -107.8303 69° East 536 617 35,000  Level Salt Lake Center
04:25PM 43.5939 -107.6414 68° East 535 616 35,000  Level Salt Lake Center
04:26PM 43.6464 -107.4528 69° East 531 611 35,000  Level Salt Lake Center
04:27PM 43.6975 -107.2658 69° East 524 603 35,000  Level Salt Lake Center
04:28PM 43.7408 -107.0706 73° East 536 617 35,000  Level Salt Lake Center
04:29PM 43.7753 -106.8425 78° East 525 604 35,000  Level Salt Lake Center
04:30PM 43.8081 -106.6525 76° East 526 605 35,000  Level Salt Lake Center
04:31PM 43.8442 -106.4586 75° East 529 609 35,000  Level Denver Center
04:32PM 43.8842 -106.2333 76° East 536 617 35,000  Level Denver Center
04:33PM 43.9133 -106.0403 78° East 536 617 35,000  Level Denver Center
04:34PM 43.9486 -105.8150 78° East 534 615 35,000  Level Denver Center
04:35PM 43.9775 -105.6231 78° East 532 612 35,000  Level Denver Center
04:36PM 44.0069 -105.4308 78° East 531 611 35,000  Level Denver Center
04:37PM 44.0400 -105.2064 78° East 530 610 35,000  Level Denver Center
04:38PM 44.0681 -105.0144 78° East 529 609 35,000  Level Denver Center
04:39PM 44.1008 -104.7903 78° East 529 609 35,000  Level Denver Center
04:40PM 44.1269 -104.6014 79° East 522 601 35,000  Level Denver Center
04:41PM 44.1547 -104.4094 79° East 525 604 35,000  Level Denver Center
04:42PM 44.1856 -104.1886 79° East 521 600 35,000  Level Denver Center
04:43PM 44.2117 -103.9981 79° East 521 600 35,000  Level Denver Center
04:45PM 44.2417 -103.7750 79° East 523 602 35,000  Level Denver Center
04:46PM 44.2706 -103.5506 80° East 525 604 35,000  Level Denver Center
04:47PM 44.3008 -103.3261 79° East 526 605 35,000  Level Denver Center
04:48PM 44.3269 -103.1403 79° East 519 597 35,000  Level Denver Center
04:49PM 44.3539 -102.9378 79° East 527 606 35,000  Level Denver Center
04:50PM 44.3778 -102.7336 81° East 532 612 35,000  Level Denver Center
04:51PM 44.4078 -102.4931 80° East 527 606 35,000  Level Denver Center
04:52PM 44.4322 -102.2933 80° East 524 603 35,000  Level Denver Center
04:53PM 44.4569 -102.0931 80° East 523 602 35,000  Level Denver Center
04:54PM 44.4789 -101.8914 81° East 525 604 35,000  Level Denver Center
04:55PM 44.5022 -101.6908 81° East 523 602 35,000  Level Denver Center
04:56PM 44.5253 -101.4911 81° East 522 601 35,000  Level Denver Center
04:57PM 44.5414 -101.3311 82° East 522 601 35,000  Level Minneapolis Center
04:58PM 44.5667 -101.0925 81° East 520 598 35,000  Level Minneapolis Center
04:59PM 44.5886 -100.8947 81° East 518 596 35,000  Level Minneapolis Center
05:00PM 44.6133 -100.6575 82° East 515 593 35,000  Level Minneapolis Center
05:01PM 44.6342 -100.4614 81° East 513 590 35,000  Level Minneapolis Center
05:02PM 44.6575 -100.2267 82° East 511 588 35,000  Level Minneapolis Center
05:03PM 44.6781 -100.0319 81° East 510 587 35,000  Level Minneapolis Center
05:04PM 44.7003 -99.7983 82° East 509 586 35,000  Level Minneapolis Center
05:05PM 44.7189 -99.6025 82° East 511 588 35,000  Level Minneapolis Center
05:07PM 44.7389 -99.4081 82° East 508 585 35,000  Level Minneapolis Center
05:13PM 44.8460 -98.2160 82° East 505 581 35,000  Level FlightAware
05:13PM 44.8570 -98.0770 84° East 505 581 35,000  Level FlightAware
05:14PM 44.8690 -97.9350 83° East 505 581 35,000  Level FlightAware
05:15PM 44.8800 -97.8020 83° East 505 581 35,000  Level FlightAware
05:15PM 44.8900 -97.6720 84° East 505 581 35,000  Level FlightAware
05:16PM 44.9000 -97.5500 83° East 505 581 35,000  Level FlightAware
05:17PM 44.9090 -97.4240 84° East 503 579 35,000  Level FlightAware
05:17PM 44.9210 -97.2740 84° East 502 578 35,000  Level FlightAware
05:18PM 44.9300 -97.1440 84° East 502 578 35,000  Level FlightAware
05:19PM 44.9400 -97.0080 84° East 503 579 35,000  Level FlightAware
05:19PM 44.9510 -96.8650 84° East 503 579 35,000  Level FlightAware
05:20PM 44.9600 -96.7360 84° East 503 579 35,000  Level FlightAware
05:21PM 44.9670 -96.6280 85° East 503 579 35,000  Level FlightAware
05:21PM 44.9780 -96.4720 84° East 502 578 35,000  Level FlightAware
05:22PM 44.9860 -96.3490 85° East 502 578 35,000  Level FlightAware
05:23PM 44.9950 -96.2240 84° East 502 578 35,000  Level FlightAware
05:23PM 45.0030 -96.0940 85° East 502 578 35,000  Level FlightAware
05:24PM 45.0110 -95.9630 85° East 503 579 35,000  Level FlightAware
05:25PM 45.0210 -95.8090 85° East 502 578 35,000  Level FlightAware
05:25PM 45.0290 -95.6830 85° East 502 578 35,000  Level FlightAware
05:26PM 45.0370 -95.5470 85° East 502 578 35,000  Level FlightAware
05:27PM 45.0450 -95.4040 85° East 502 578 35,000  Level FlightAware
05:27PM 45.0520 -95.2940 85° East 502 578 35,000  Level FlightAware
05:28PM 45.0600 -95.1530 85° East 501 577 35,000  Level FlightAware
05:29PM 45.0650 -95.0130 87° East 500 575 35,000 480 Level FlightAware
05:30PM 45.0460 -94.8840 102° East 493 567 35,700 1,200 Climbing FlightAware
05:30PM 45.0140 -94.7530 109° East 488 562 36,700 900 Climbing FlightAware
05:31PM 44.9810 -94.6310 111° Southeast 492 566 37,000 180 Climbing FlightAware
05:32PM 44.9490 -94.5140 111° Southeast 495 570 37,000  Level FlightAware
05:32PM 44.9130 -94.3810 111° Southeast 496 571 37,000  Level FlightAware
05:33PM 44.8780 -94.2480 110° East 495 570 37,000  Level FlightAware
05:34PM 44.8450 -94.1270 111° Southeast 494 568 37,000  Level FlightAware
05:34PM 44.8090 -93.9960 111° Southeast 492 566 37,000  Level FlightAware
05:35PM 44.7780 -93.8800 111° Southeast 490 564 37,000  Level FlightAware
05:36PM 44.7430 -93.7550 111° Southeast 490 564 37,000  Level FlightAware
05:37PM 44.7040 -93.6130 111° Southeast 488 562 37,000  Level FlightAware
05:37PM 44.6670 -93.4800 111° Southeast 486 559 37,000  Level FlightAware
05:38PM 44.6340 -93.3610 111° Southeast 486 559 37,000  Level FlightAware
05:39PM 44.6000 -93.2390 111° Southeast 481 554 37,000  Level FlightAware
05:39PM 44.5670 -93.1240 112° Southeast 477 549 37,000  Level FlightAware
05:40PM 44.5330 -93.0030 111° Southeast 477 549 37,000  Level FlightAware
05:41PM 44.4920 -92.8560 111° Southeast 478 550 37,000  Level FlightAware
05:42PM 44.4550 -92.7300 112° Southeast 476 548 37,000  Level FlightAware
05:42PM 44.4230 -92.6180 112° Southeast 474 545 37,000  Level FlightAware
05:43PM 44.3890 -92.5030 112° Southeast 471 542 37,000  Level FlightAware
05:44PM 44.3610 -92.4060 112° Southeast 469 540 37,000  Level FlightAware
05:44PM 44.3370 -92.3240 112° Southeast 467 537 37,000  Level FlightAware
05:45PM 44.3000 -92.1970 112° Southeast 465 535 37,000  Level FlightAware
05:45PM 44.2710 -92.0970 112° Southeast 467 537 37,000  Level FlightAware
05:46PM 44.2380 -91.9850 112° Southeast 475 547 37,000  Level FlightAware
05:47PM 44.1910 -91.8280 113° Southeast 481 554 37,000  Level FlightAware
05:48PM 44.1550 -91.7070 112° Southeast 489 563 37,000  Level FlightAware
05:49PM 44.1160 -91.5780 113° Southeast 495 570 37,000  Level FlightAware
05:49PM 44.0800 -91.4600 113° Southeast 496 571 37,000  Level FlightAware
05:50PM 44.0450 -91.3430 113° Southeast 495 570 37,000  Level FlightAware
05:51PM 44.0060 -91.2140 113° Southeast 492 566 37,000  Level FlightAware
05:51PM 43.9670 -91.0860 113° Southeast 488 562 37,000  Level FlightAware
05:52PM 43.9310 -90.9700 113° Southeast 483 556 37,000  Level FlightAware
05:53PM 43.8920 -90.8450 113° Southeast 479 551 37,000  Level FlightAware
05:53PM 43.8580 -90.7340 113° Southeast 476 548 37,000  Level FlightAware
05:54PM 43.8230 -90.6220 113° Southeast 473 544 37,000  Level FlightAware
05:55PM 43.7850 -90.5000 113° Southeast 471 542 37,000  Level FlightAware
05:55PM 43.7510 -90.3920 114° Southeast 468 539 37,000  Level FlightAware
05:56PM 43.7120 -90.2690 114° Southeast 467 537 37,000  Level FlightAware
05:57PM 43.6810 -90.1720 114° Southeast 467 537 37,000  Level FlightAware
05:58PM 43.6350 -90.0240 113° Southeast 467 537 37,000  Level FlightAware
05:58PM 43.5990 -89.9120 114° Southeast 467 537 37,000  Level FlightAware
05:59PM 43.5670 -89.8120 114° Southeast 465 535 37,000  Level FlightAware
06:00PM 43.5420 -89.6990 107° East 460 529 37,000  Level FlightAware
06:00PM 43.5200 -89.5840 105° East 459 528 37,000  Level FlightAware
06:01PM 43.4980 -89.4570 103° East 458 527 37,000  Level FlightAware
06:02PM 43.4780 -89.3420 103° East 454 522 37,000  Level FlightAware
06:03PM 43.4570 -89.2210 103° East 453 521 37,000  Level FlightAware
06:03PM 43.4390 -89.1140 103° East 452 520 37,000  Level FlightAware
06:04PM 43.4170 -88.9900 104° East 450 518 37,000  Level FlightAware
06:05PM 43.3980 -88.8810 103° East 450 518 37,000  Level FlightAware
06:05PM 43.3820 -88.7880 103° East 450 518 37,000  Level FlightAware
06:06PM 43.3600 -88.6700 104° East 451 519 37,000  Level FlightAware
06:07PM 43.3390 -88.5480 103° East 449 517 37,000  Level FlightAware
06:07PM 43.3190 -88.4420 105° East 447 514 37,000  Level FlightAware
06:08PM 43.3000 -88.3340 104° East 446 513 37,000  Level FlightAware
06:09PM 43.2800 -88.2250 104° East 445 512 37,000  Level FlightAware
06:09PM 43.2590 -88.1120 104° East 443 510 37,000  Level FlightAware
06:10PM 43.2390 -88.0040 104° East 443 510 37,000  Level FlightAware
06:10PM 43.2200 -87.9050 105° East 443 510 37,000  Level FlightAware
06:11PM 43.1960 -87.7770 104° East 443 510 37,000  Level FlightAware
06:12PM 43.1740 -87.6580 104° East 444 511 37,000  Level FlightAware
06:13PM 43.1520 -87.5460 105° East 444 511 37,000  Level FlightAware
06:13PM 43.1310 -87.4350 104° East 443 510 37,000  Level FlightAware
06:14PM 43.1090 -87.3210 105° East 442 509 37,000  Level FlightAware
06:14PM 43.0980 -87.2640 105° East 442 509 37,000  Level FlightAware
06:15PM 43.0910 -87.2250 104° East 441 507 37,000  Level FlightAware
06:16PM 43.0510 -87.0180 105° East 440 506 37,000  Level FlightAware
06:17PM 43.0310 -86.9170 105° East 440 506 37,000  Level FlightAware
06:17PM 43.0060 -86.7930 105° East 439 505 37,000  Level FlightAware
06:18PM 42.9860 -86.6930 105° East 438 504 37,000  Level FlightAware
06:19PM 42.9620 -86.5710 105° East 436 502 37,000  Level FlightAware
06:19PM 42.9420 -86.4690 105° East 436 502 37,000  Level FlightAware
06:20PM 42.9170 -86.3470 106° East 434 499 37,000  Level FlightAware
06:21PM 42.9010 -86.2670 105° East 432 497 37,000  Level FlightAware
06:21PM 42.8760 -86.1470 106° East 427 491 37,000  Level FlightAware
06:22PM 42.8550 -86.0450 106° East 424 488 37,000  Level FlightAware
06:23PM 42.8320 -85.9320 105° East 421 484 37,000  Level FlightAware
06:23PM 42.8100 -85.8260 106° East 418 481 37,000  Level FlightAware
06:24PM 42.7870 -85.7170 106° East 417 480 37,000  Level FlightAware
06:25PM 42.7710 -85.6170 102° East 411 473 37,000  Level FlightAware
06:26PM 42.7660 -85.5000 93° East 409 471 37,000  Level FlightAware
06:26PM 42.7590 -85.4010 95° East 409 471 37,000  Level FlightAware
06:27PM 42.7490 -85.2850 97° East 409 471 37,000  Level FlightAware
06:28PM 42.7400 -85.1870 97° East 412 474 37,000  Level FlightAware
06:28PM 42.7320 -85.0700 95° East 415 478 37,000  Level FlightAware
06:29PM 42.7260 -84.9690 95° East 420 483 37,000  Level FlightAware
06:30PM 42.7180 -84.8490 95° East 427 491 37,000  Level FlightAware
06:30PM 42.7110 -84.7430 95° East 434 499 37,000  Level FlightAware
06:31PM 42.7030 -84.6270 95° East 441 507 37,000  Level FlightAware
06:32PM 42.6940 -84.5090 96° East 445 512 37,000  Level FlightAware
06:33PM 42.6870 -84.4080 95° East 449 517 37,000  Level FlightAware
06:33PM 42.6800 -84.3020 95° East 452 520 37,000  Level FlightAware
06:34PM 42.6700 -84.1720 96° East 455 524 37,000  Level FlightAware
06:35PM 42.6630 -84.0670 95° East 458 527 37,000  Level FlightAware
06:35PM 42.6520 -83.9210 96° East 460 529 37,000  Level FlightAware
06:36PM 42.6420 -83.7920 96° East 460 529 37,000  Level FlightAware
06:37PM 42.6330 -83.6790 96° East 461 531 37,000  Level FlightAware
06:37PM 42.6240 -83.5520 95° East 463 533 37,000 -120 Level FlightAware
06:38PM 42.6150 -83.4390 96° East 461 531 36,900 -660 Descending FlightAware
06:39PM 42.6050 -83.3150 96° East 462 532 36,100 -1,200 Descending FlightAware
06:39PM 42.5960 -83.2060 96° East 465 535 35,300 -960 Descending FlightAware
06:40PM 42.5870 -83.1010 97° East 466 536 35,000 -240 Descending FlightAware
06:41PM 42.5760 -82.9640 96° East 469 540 35,000  Level FlightAware
06:41PM 42.5670 -82.8580 97° East 470 541 35,000  Level FlightAware
06:42PM 42.5570 -82.7410 97° East 475 547 35,000  Level FlightAware
06:43PM 42.5470 -82.6220 96° East 477 549 35,000  Level FlightAware
06:43PM 42.5370 -82.5080 97° East 479 551 35,000  Level FlightAware
06:44PM 42.5260 -82.3860 97° East 480 552 35,000  Level FlightAware
06:45PM 42.5150 -82.2600 97° East 481 554 35,000  Level FlightAware
06:46PM 42.5040 -82.1360 97° East 480 552 35,000  Level FlightAware
06:46PM 42.4920 -82.0030 97° East 479 551 35,000  Level FlightAware
06:47PM 42.4800 -81.8740 97° East 478 550 35,000  Level FlightAware
06:48PM 42.4650 -81.7180 97° East 478 550 35,000  Level FlightAware
06:49PM 42.4570 -81.6290 97° East 476 548 35,000  Level FlightAware
06:49PM 42.4430 -81.4850 97° East 475 547 35,000  Level FlightAware
06:50PM 42.4300 -81.3510 97° East 473 544 35,000  Level FlightAware
06:51PM 42.4200 -81.2520 98° East 473 544 35,000  Level FlightAware
06:51PM 42.4080 -81.1300 98° East 473 544 35,000  Level FlightAware
06:52PM 42.3960 -81.0110 98° East 473 544 35,000  Level FlightAware
06:53PM 42.3820 -80.8760 98° East 473 544 35,000  Level FlightAware
06:53PM 42.3720 -80.7770 98° East 474 545 35,000  Level FlightAware
06:54PM 42.3580 -80.6410 98° East 474 545 35,000  Level FlightAware
06:55PM 42.3450 -80.5180 98° East 473 544 35,000  Level FlightAware
06:56PM 42.3290 -80.3690 98° East 473 544 35,000  Level FlightAware
06:56PM 42.3170 -80.2560 98° East 474 545 35,000  Level FlightAware
06:57PM 42.3030 -80.1240 98° East 476 548 35,000  Level FlightAware
06:58PM 42.2900 -80.0100 99° East 477 549 35,000  Level FlightAware
06:58PM 42.2760 -79.8850 99° East 477 549 35,000  Level FlightAware
06:59PM 42.2610 -79.7510 99° East 478 550 35,000  Level FlightAware
07:00PM 42.2490 -79.6390 98° East 479 551 35,000  Level FlightAware
07:00PM 42.2350 -79.5230 99° East 479 551 35,000  Level FlightAware
07:01PM 42.2220 -79.4110 99° East 480 552 35,000  Level FlightAware
07:02PM 42.2080 -79.2840 98° East 480 552 35,000  Level FlightAware
07:02PM 42.1950 -79.1770 99° East 479 551 35,000  Level FlightAware
07:03PM 42.1790 -79.0750 102° East 478 550 35,000  Level FlightAware
07:04PM 42.1390 -78.9200 109° East 477 549 35,000  Level FlightAware
07:04PM 42.1100 -78.8080 109° East 476 548 35,000  Level FlightAware
07:05PM 42.0770 -78.6790 109° East 477 549 35,000  Level FlightAware
07:06PM 42.0460 -78.5560 109° East 478 550 35,000  Level FlightAware
07:07PM 42.0180 -78.4430 108° East 478 550 35,000  Level FlightAware
07:07PM 41.9860 -78.3190 109° East 479 551 35,000  Level FlightAware
07:08PM 41.9620 -78.2270 109° East 480 552 35,000  Level FlightAware
07:09PM 41.9330 -78.1130 109° East 480 552 35,000  Level FlightAware
07:09PM 41.9010 -77.9900 109° East 481 554 35,000  Level FlightAware
07:10PM 41.8750 -77.8900 109° East 481 554 35,000  Level FlightAware
07:11PM 41.8480 -77.7890 110° East 482 555 35,000  Level FlightAware
07:11PM 41.8160 -77.6640 109° East 482 555 35,000  Level FlightAware
07:12PM 41.7870 -77.5570 110° East 481 554 35,000  Level FlightAware
07:13PM 41.7570 -77.4450 110° East 482 555 35,000  Level FlightAware
07:13PM 41.7250 -77.3240 109° East 481 554 35,000  Level FlightAware
07:14PM 41.6930 -77.2060 110° East 481 554 35,000  Level FlightAware
07:14PM 41.6739 -77.1335 109° East 480 552 35,000  Level FlightAware ADS-B
07:15PM 41.6512 -77.0496 110° East 480 552 35,000  Level FlightAware ADS-B
07:16PM 41.6237 -76.9480 110° East 481 554 35,000  Level FlightAware ADS-B
07:16PM 41.5997 -76.8599 110° East 480 552 35,000  Level FlightAware ADS-B
07:17PM 41.5759 -76.7726 110° East 481 554 35,000  Level FlightAware ADS-B
07:17PM 41.5511 -76.6825 110° East 481 554 35,000  Level FlightAware ADS-B
07:18PM 41.5279 -76.5980 110° East 482 555 35,000  Level FlightAware ADS-B
07:18PM 41.5042 -76.5120 110° East 482 555 35,000  Level FlightAware ADS-B
07:19PM 41.4765 -76.4121 110° East 483 556 35,000  Level FlightAware ADS-B
07:19PM 41.4529 -76.3275 110° East 484 557 35,000  Level FlightAware ADS-B
07:20PM 41.4284 -76.2397 110° East 483 556 35,000  Level FlightAware ADS-B
07:20PM 41.4050 -76.1561 110° East 482 555 35,000 -420 Level FlightAware ADS-B
07:21PM 41.3805 -76.0690 111° Southeast 481 554 34,600 -1,140 Descending FlightAware ADS-B
07:21PM 41.3568 -75.9853 111° Southeast 486 559 33,900 -1,200 Descending FlightAware ADS-B
07:22PM 41.3319 -75.8972 111° Southeast 488 562 33,400 -1,080 Descending FlightAware ADS-B
07:22PM 41.3079 -75.8123 111° Southeast 486 559 32,800 -1,860 Descending FlightAware ADS-B
07:23PM 41.2879 -75.7423 111° Southeast 487 560 31,700 -3,120 Descending FlightAware ADS-B
07:23PM 41.2577 -75.6442 112° Southeast 492 566 29,700 -3,600 Descending FlightAware ADS-B
07:24PM 41.2302 -75.5610 114° Southeast 496 571 27,800 -3,840 Descending FlightAware ADS-B
07:24PM 41.2017 -75.4759 114° Southeast 500 575 25,800 -3,540 Descending FlightAware ADS-B
07:25PM 41.1715 -75.3861 114° Southeast 493 567 24,100 -2,580 Descending FlightAware ADS-B
07:25PM 41.1433 -75.3024 114° Southeast 487 560 23,100 -1,080 Descending FlightAware ADS-B
07:26PM 41.1145 -75.2173 114° Southeast 483 556 23,000 -120 Descending FlightAware ADS-B
07:26PM 41.0862 -75.1338 114° Southeast 486 559 23,000  Level FlightAware ADS-B
07:27PM 41.0580 -75.0507 114° Southeast 470 541 23,000  Level FlightAware ADS-B
07:27PM 41.0313 -74.9727 114° Southeast 463 533 23,000  Level FlightAware ADS-B
07:28PM 41.0136 -74.9205 114° Southeast 464 534 23,000  Level FlightAware ADS-B
07:28PM 41.0052 -74.8917 111° Southeast 463 533 23,000  Level FlightAware ADS-B
07:28PM 40.9973 -74.8572 107° East 465 535 23,000  Level FlightAware ADS-B
07:28PM 40.9962 -74.8517 105° East 465 535 23,000  Level FlightAware ADS-B
07:29PM 40.9849 -74.7727 101° East 466 536 23,000  Level FlightAware ADS-B
07:29PM 40.9846 -74.7701 99° East 467 537 23,000  Level FlightAware ADS-B
07:29PM 40.9753 -74.6841 98° East 467 537 23,000 -540 Level FlightAware ADS-B
07:30PM 40.9665 -74.6004 98° East 451 519 22,500 -1,140 Descending FlightAware ADS-B
07:30PM 40.9656 -74.5920 98° East 448 516 22,400 -2,160 Descending FlightAware ADS-B
07:30PM 40.9579 -74.5195 98° East 419 482 21,400 -2,220 Descending FlightAware ADS-B
07:31PM 40.9498 -74.4447 98° East 389 448 20,300 -2,160 Descending FlightAware ADS-B
07:31PM 40.9419 -74.3726 98° East 368 423 19,200 -1,500 Descending FlightAware ADS-B
07:32PM 40.9369 -74.3285 99° East 359 413 19,000 -420 Descending FlightAware ADS-B
07:32PM 40.9345 -74.3074 99° East 353 406 19,000  Level FlightAware ADS-B
07:32PM 40.9286 -74.2562 99° East 350 403 19,000  Level FlightAware ADS-B
07:32PM 40.9269 -74.2410 98° East 350 403 19,000  Level FlightAware ADS-B
07:33PM 40.9227 -74.2061 99° East 351 404 19,000  Level FlightAware ADS-B
07:33PM 40.9220 -74.2020 103° East 351 404 19,000  Level FlightAware ADS-B
07:33PM 40.9207 -74.1956 105° East 350 403 19,000  Level FlightAware ADS-B
07:33PM 40.9188 -74.1881 109° East 348 400 19,000  Level FlightAware ADS-B
07:33PM 40.9145 -74.1755 114° Southeast 347 399 19,000  Level FlightAware ADS-B
07:33PM 40.9141 -74.1744 116° Southeast 346 398 19,000  Level FlightAware ADS-B
07:33PM 40.9077 -74.1611 122° Southeast 344 396 19,000  Level FlightAware ADS-B
07:33PM 40.9022 -74.1523 130° Southeast 343 395 19,000  Level FlightAware ADS-B
07:33PM 40.8985 -74.1472 134° Southeast 343 395 19,000  Level FlightAware ADS-B
07:33PM 40.8949 -74.1428 137° Southeast 343 395 19,000  Level FlightAware ADS-B
07:33PM 40.8862 -74.1337 142° Southeast 343 395 19,000 -840 Level FlightAware ADS-B
07:34PM 40.8559 -74.1058 145° Southeast 341 392 18,600 -1,080 Descending FlightAware ADS-B
07:34PM 40.8424 -74.0935 145° Southeast 338 389 18,400 -1,200 Descending FlightAware ADS-B
07:34PM 40.8173 -74.0703 145° Southeast 331 381 18,000 -1,200 Descending FlightAware ADS-B
07:34PM 40.8045 -74.0583 145° Southeast 328 377 17,800 -1,560 Descending FlightAware ADS-B
07:35PM 40.7791 -74.0350 145° Southeast 328 377 17,200 -1,740 Descending FlightAware ADS-B
07:35PM 40.7649 -74.0219 145° Southeast 327 376 16,900 -1,620 Descending FlightAware ADS-B
07:35PM 40.7414 -74.0002 145° Southeast 323 372 16,400 -1,560 Descending FlightAware ADS-B
07:36PM 40.7029 -73.9651 145° Southeast 320 368 15,600 -1,560 Descending FlightAware ADS-B
07:36PM 40.6658 -73.9306 145° Southeast 319 367 14,800 -1,500 Descending FlightAware ADS-B
07:37PM 40.6262 -73.8925 144° Southeast 313 360 14,000 -1,380 Descending FlightAware ADS-B
07:37PM 40.5944 -73.8626 144° Southeast 307 353 13,400 -1,500 Descending FlightAware ADS-B
07:37PM 40.5823 -73.8551 155° Southeast 303 349 13,100 -1,560 Descending FlightAware ADS-B
07:38PM 40.5428 -73.8383 162° South 298 343 12,400 -1,500 Descending FlightAware ADS-B
07:38PM 40.5115 -73.8257 163° South 296 341 11,800 -1,500 Descending FlightAware ADS-B
07:39PM 40.4724 -73.8097 163° South 294 338 11,100 -1,380 Descending FlightAware ADS-B
07:39PM 40.4600 -73.8043 162° South 293 337 10,900 -1,440 Descending FlightAware ADS-B
07:39PM 40.4510 -73.7986 154° Southeast 295 339 10,700 -1,500 Descending FlightAware ADS-B
07:39PM 40.4450 -73.7932 146° Southeast 297 342 10,600 -1,920 Descending FlightAware ADS-B
07:39PM 40.4348 -73.7791 134° Southeast 300 345 10,200 -2,220 Descending FlightAware ADS-B
07:40PM 40.4259 -73.7625 125° Southeast 301 346 9,800 -2,040 Descending FlightAware ADS-B
07:40PM 40.4144 -73.7390 123° Southeast 301 346 9,300 -2,100 Descending FlightAware ADS-B
07:40PM 40.3958 -73.7018 123° Southeast 300 345 8,400 -2,100 Descending FlightAware ADS-B
07:40PM 40.3833 -73.6769 123° Southeast 298 343 7,900 -1,920 Descending FlightAware ADS-B
07:41PM 40.3717 -73.6534 123° Southeast 295 339 7,400 -2,100 Descending FlightAware ADS-B
07:41PM 40.3672 -73.6412 116° Southeast 297 342 7,100 -2,040 Descending FlightAware ADS-B
07:41PM 40.3647 -73.6286 105° East 298 343 6,900 -1,440 Descending FlightAware ADS-B
07:41PM 40.3643 -73.6177 93° East 298 343 6,800 -1,680 Descending FlightAware ADS-B
07:41PM 40.3718 -73.5862 73° East 298 343 6,200 -1,860 Descending FlightAware ADS-B
07:41PM 40.3748 -73.5806 55° Northeast 294 338 6,100 -1,440 Descending FlightAware ADS-B
07:42PM 40.3843 -73.5692 42° Northeast 291 335 5,900 -1,380 Descending FlightAware ADS-B
07:42PM 40.3992 -73.5580 30° Northeast 288 331 5,600 -1,200 Descending FlightAware ADS-B
07:42PM 40.4420 -73.5300 26° Northeast 280 322 4,900 -1,200 Descending FlightAware
07:43PM 40.4730 -73.5100 26° Northeast 277 319 4,400 -1,320 Descending FlightAware
07:43PM 40.5060 -73.4890 26° Northeast 278 320 3,700 -780 Descending FlightAware
07:44PM 40.5420 -73.4750 16° North 273 314 3,700  Level FlightAware
07:44PM 40.5760 -73.4700 North 269 310 3,700 -120 Level FlightAware
07:45PM 40.6110 -73.4650 North 267 307 3,600 -660 Descending FlightAware
07:45PM 40.6490 -73.4590 North 268 308 3,100 -960 Descending FlightAware
07:46PM 40.6950 -73.4700 350° North 259 298 2,500 -900 Descending FlightAware
07:46PM 40.7050 -73.4840 313° West 248 285 2,300 -720 Descending FlightAware
07:47PM 40.7230 -73.5160 307° West 233 268 2,000 -660 Descending FlightAware
07:47PM 40.7430 -73.5500 308° West 226 260 1,700 -420 Descending FlightAware
07:47PM 40.7540 -73.5670 311° West 230 265 1,700  Level FlightAware
07:48PM 40.7720 -73.6000 306° West 229 264 1,700  Level FlightAware
07:48PM 40.7740 -73.6140 281° West 221 254 1,700  Level FlightAware
07:48PM 40.7650 -73.6430 248° West 193 222 1,700  Level FlightAware
07:49PM 40.7480 -73.6720 232° Southwest 182 209 1,700 -120 Level FlightAware
07:49PM 40.7300 -73.6890 216° Southwest 182 209 1,600 -660 Descending FlightAware
07:50PM 40.7100 -73.7050 211° Southwest 165 190 1,100 -900 Descending FlightAware
07:50PM 40.6940 -73.7170 210° Southwest 138 159 800 -660 Descending FlightAware
07:51PM 40.6780 -73.7290 210° Southwest 129 148 500 -660 Descending FlightAware
07:51PM 40.6640 -73.7400 211° Southwest 131 151 200 -660 Descending FlightAware
07:52PM 40.6490 -73.7520 211° Southwest 136 157 -480 Descending FlightAware
07:52PM 40.6350 -73.7630 211° Southwest 96 110  Level FlightAware
07:53PM 40.6300 -73.7670 211° Southwest 26 30  Level FlightAware
07:54PM 40.6310 -73.7700 294° West 17 20  Level FlightAware
07:54PM 40.6320 -73.7690 37° Northeast 16 18  Level FlightAware